Year,Month,Day,Hour,Minute,Value (Times are PST for temperature in C)
2010,08,16,10,22,27.00
2010,08,16,10,23,27.00
2010,08,16,10,24,27.10
2010,08,16,10,25,27.10
2010,08,16,10,26,27.10
2010,08,16,10,27,27.10
2010,08,16,10,28,27.10
2010,08,16,10,29,27.10
2010,08,16,10,30,27.10
2010,08,16,10,31,27.00
2010,08,16,10,32,27.00
2010,08,16,10,33,27.00
2010,08,16,10,34,27.00
2010,08,16,10,35,27.10
2010,08,16,10,36,27.20
2010,08,16,10,37,27.30
2010,08,16,10,38,27.40
2010,08,16,10,39,27.40
2010,08,16,10,40,27.40
2010,08,16,10,41,27.40
2010,08,16,10,42,27.30
2010,08,16,10,43,27.30
2010,08,16,10,44,27.30
2010,08,16,10,45,27.30
2010,08,16,10,46,27.20
2010,08,16,10,47,27.20
2010,08,16,10,48,27.20
2010,08,16,10,49,27.20
2010,08,16,10,50,27.20
2010,08,16,10,51,27.20
2010,08,16,10,52,27.20
2010,08,16,10,53,27.20
2010,08,16,10,54,27.20
2010,08,16,10,55,27.20
2010,08,16,10,56,27.30
2010,08,16,10,57,27.30
2010,08,16,10,58,27.30
2010,08,16,10,59,27.30
2010,08,16,11,00,27.40
2010,08,16,11,01,27.40
2010,08,16,11,02,27.40
2010,08,16,11,03,27.30
2010,08,16,11,04,27.30
2010,08,16,11,05,27.20
2010,08,16,11,06,27.20
2010,08,16,11,07,27.10
2010,08,16,11,08,27.10
2010,08,16,11,09,27.10
2010,08,16,11,10,27.10
2010,08,16,11,11,27.10
2010,08,16,11,12,27.20
2010,08,16,11,13,27.20
2010,08,16,11,14,27.30
2010,08,16,11,15,27.30
2010,08,16,11,16,27.40
2010,08,16,11,17,27.50
2010,08,16,11,18,27.60
2010,08,16,11,19,27.70
2010,08,16,11,20,27.70
2010,08,16,11,21,27.70
2010,08,16,11,22,27.70
2010,08,16,11,23,27.70
2010,08,16,11,24,27.70
2010,08,16,11,25,27.80
2010,08,16,11,26,27.80
2010,08,16,11,27,27.80
2010,08,16,11,28,27.80
2010,08,16,11,29,27.80
2010,08,16,11,30,27.80
2010,08,16,11,31,27.80
2010,08,16,11,32,27.80
2010,08,16,11,33,27.70
2010,08,16,11,34,27.70
2010,08,16,11,35,27.80
2010,08,16,11,36,27.90
2010,08,16,11,37,28.00
2010,08,16,11,38,28.00
2010,08,16,11,39,28.00
2010,08,16,11,40,27.90
2010,08,16,11,41,27.90
2010,08,16,11,42,27.90
2010,08,16,11,43,28.00
2010,08,16,11,44,28.10
2010,08,16,11,45,28.20
2010,08,16,11,46,28.20
2010,08,16,11,47,28.30
2010,08,16,11,48,28.30
2010,08,16,11,49,28.30
2010,08,16,11,50,28.30
2010,08,16,11,51,28.40
2010,08,16,11,52,28.40
2010,08,16,11,53,28.50
2010,08,16,11,54,28.60
2010,08,16,11,55,28.60
2010,08,16,11,56,28.70
2010,08,16,11,57,28.70
2010,08,16,11,58,28.80
2010,08,16,11,59,28.80
2010,08,16,12,00,28.70
2010,08,16,12,01,28.60
2010,08,16,12,02,28.50
2010,08,16,12,03,28.30
2010,08,16,12,04,28.10
2010,08,16,12,05,28.00
2010,08,16,12,06,28.00
2010,08,16,12,07,28.00
2010,08,16,12,08,28.10
2010,08,16,12,09,28.10
2010,08,16,12,10,28.20
2010,08,16,12,11,28.30
2010,08,16,12,12,28.40
2010,08,16,12,13,28.40
2010,08,16,12,14,28.40
2010,08,16,12,15,28.40
2010,08,16,12,16,28.50
2010,08,16,12,17,28.50
2010,08,16,12,18,28.50
2010,08,16,12,19,28.50
2010,08,16,12,20,28.60
2010,08,16,12,21,28.70
2010,08,16,12,22,28.70
2010,08,16,12,23,28.80
2010,08,16,12,24,28.80
2010,08,16,12,25,28.90
2010,08,16,12,26,28.90
2010,08,16,12,27,28.90
2010,08,16,12,28,28.90
2010,08,16,12,29,28.90
2010,08,16,12,30,28.90
2010,08,16,12,31,28.80
2010,08,16,12,32,28.80
2010,08,16,12,33,28.70
2010,08,16,12,34,28.70
2010,08,16,12,35,28.70
2010,08,16,12,36,28.70
2010,08,16,12,37,28.70
2010,08,16,12,38,28.70
2010,08,16,12,39,28.70
2010,08,16,12,40,28.80
2010,08,16,12,41,28.80
2010,08,16,12,42,28.90
2010,08,16,12,43,28.90
2010,08,16,12,44,28.90
2010,08,16,12,45,28.90
2010,08,16,12,46,28.80
2010,08,16,12,47,28.80
2010,08,16,12,48,28.80
2010,08,16,12,49,28.80
2010,08,16,12,50,28.80
2010,08,16,12,51,28.80
2010,08,16,12,52,28.80
2010,08,16,12,53,28.80
2010,08,16,12,54,28.80
2010,08,16,12,55,28.80
2010,08,16,12,56,28.70
2010,08,16,12,57,28.70
2010,08,16,12,58,28.70
2010,08,16,12,59,28.60
2010,08,16,13,00,28.60
2010,08,16,13,01,28.60
2010,08,16,13,02,28.70
2010,08,16,13,03,28.70
2010,08,16,13,04,28.80
2010,08,16,13,05,28.80
2010,08,16,13,06,28.80
2010,08,16,13,07,28.80
2010,08,16,13,08,28.80
2010,08,16,13,09,28.80
2010,08,16,13,10,28.80
2010,08,16,13,11,28.80
2010,08,16,13,12,28.80
2010,08,16,13,13,28.80
2010,08,16,13,14,28.80
2010,08,16,13,15,28.80
2010,08,16,13,16,28.80
2010,08,16,13,17,28.90
2010,08,16,13,18,28.90
2010,08,16,13,19,29.00
2010,08,16,13,20,29.00
2010,08,16,13,21,29.10
2010,08,16,13,22,29.20
2010,08,16,13,23,29.30
2010,08,16,13,24,29.20
2010,08,16,13,25,29.20
2010,08,16,13,26,29.20
2010,08,16,13,27,29.30
2010,08,16,13,28,29.30
2010,08,16,13,29,29.30
2010,08,16,13,30,29.40
2010,08,16,13,31,29.50
2010,08,16,13,32,29.50
2010,08,16,13,33,29.60
2010,08,16,13,34,29.60
2010,08,16,13,35,29.70
2010,08,16,13,36,29.70
2010,08,16,13,37,29.70
2010,08,16,13,38,29.70
2010,08,16,13,39,29.70
2010,08,16,13,40,29.70
2010,08,16,13,41,29.70
2010,08,16,13,42,29.70
2010,08,16,13,43,29.80
2010,08,16,13,44,29.80
2010,08,16,13,45,29.90
2010,08,16,13,46,29.90
2010,08,16,13,47,29.90
2010,08,16,13,48,30.00
2010,08,16,13,49,30.00
2010,08,16,13,50,30.10
2010,08,16,13,51,30.10
2010,08,16,13,52,30.10
2010,08,16,13,53,30.20
2010,08,16,13,54,30.30
2010,08,16,13,55,30.30
2010,08,16,13,56,30.40
2010,08,16,13,57,30.50
2010,08,16,13,58,30.50
2010,08,16,13,59,30.50
2010,08,16,14,00,30.50
2010,08,16,14,01,30.50
2010,08,16,14,02,30.40
2010,08,16,14,03,30.40
2010,08,16,14,04,30.40
2010,08,16,14,05,30.40
2010,08,16,14,06,30.40
2010,08,16,14,07,30.40
2010,08,16,14,08,30.50
2010,08,16,14,09,30.50
2010,08,16,14,10,30.50
2010,08,16,14,11,30.40
2010,08,16,14,12,30.40
2010,08,16,14,13,30.40
2010,08,16,14,14,30.40
2010,08,16,14,15,30.40
2010,08,16,14,16,30.40
2010,08,16,14,17,30.40
2010,08,16,14,18,30.30
2010,08,16,14,19,30.40
2010,08,16,14,20,30.50
2010,08,16,14,21,30.50
2010,08,16,14,22,30.50
2010,08,16,14,23,30.50
2010,08,16,14,24,30.50
2010,08,16,14,25,30.50
2010,08,16,14,26,30.60
2010,08,16,14,27,30.60
2010,08,16,14,28,30.60
2010,08,16,14,29,30.60
2010,08,16,14,30,30.60
2010,08,16,14,31,30.60
2010,08,16,14,32,30.60
2010,08,16,14,33,30.80
2010,08,16,14,34,30.90
2010,08,16,14,35,31.00
2010,08,16,14,36,31.10
2010,08,16,14,37,31.10
2010,08,16,14,38,31.10
2010,08,16,14,39,31.00
2010,08,16,14,40,30.80
2010,08,16,14,41,30.80
2010,08,16,14,42,30.80
2010,08,16,14,43,30.80
2010,08,16,14,44,30.80
2010,08,16,14,45,30.90
2010,08,16,14,46,30.90
2010,08,16,14,47,30.90
2010,08,16,14,48,30.90
2010,08,16,14,49,30.80
2010,08,16,14,50,30.80
2010,08,16,14,51,30.80
2010,08,16,14,52,30.90
2010,08,16,14,53,30.90
2010,08,16,14,54,30.90
2010,08,16,14,55,30.90
2010,08,16,14,56,30.90
2010,08,16,14,57,30.80
2010,08,16,14,58,30.80
2010,08,16,14,59,30.70
2010,08,16,15,00,30.70
2010,08,16,15,01,30.70
2010,08,16,15,02,30.80
2010,08,16,15,03,30.80
2010,08,16,15,04,30.90
2010,08,16,15,05,30.90
2010,08,16,15,06,31.00
2010,08,16,15,07,31.00
2010,08,16,15,08,30.90
2010,08,16,15,09,31.00
2010,08,16,15,10,31.10
2010,08,16,15,11,31.10
2010,08,16,15,12,31.20
2010,08,16,15,13,31.10
2010,08,16,15,14,31.00
2010,08,16,15,15,31.00
2010,08,16,15,16,31.10
2010,08,16,15,17,31.10
2010,08,16,15,18,31.10
2010,08,16,15,19,31.10
2010,08,16,15,20,31.00
2010,08,16,15,21,31.00
2010,08,16,15,22,31.00
2010,08,16,15,23,31.00
2010,08,16,15,24,30.90
2010,08,16,15,25,30.90
2010,08,16,15,26,30.90
2010,08,16,15,27,31.00
2010,08,16,15,28,31.00
2010,08,16,15,29,30.90
2010,08,16,15,30,30.90
2010,08,16,15,31,30.90
2010,08,16,15,32,30.80
2010,08,16,15,33,30.80
2010,08,16,15,34,30.80
2010,08,16,15,35,30.80
2010,08,16,15,36,30.90
2010,08,16,15,37,30.90
2010,08,16,15,38,30.90
2010,08,16,15,39,31.00
2010,08,16,15,40,31.10
2010,08,16,15,41,31.10
2010,08,16,15,42,31.20
2010,08,16,15,43,31.30
2010,08,16,15,44,31.50
2010,08,16,15,45,31.60
2010,08,16,15,46,31.60
2010,08,16,15,47,31.70
2010,08,16,15,48,31.80
2010,08,16,15,49,31.90
2010,08,16,15,50,31.90
2010,08,16,15,51,31.90
2010,08,16,15,52,31.80
2010,08,16,15,53,31.80
2010,08,16,15,54,31.80
2010,08,16,15,55,31.70
2010,08,16,15,56,31.70
2010,08,16,15,57,31.70
2010,08,16,15,58,31.60
2010,08,16,15,59,31.60
2010,08,16,16,00,31.60
2010,08,16,16,01,31.60
2010,08,16,16,02,31.60
2010,08,16,16,03,31.70
2010,08,16,16,04,31.80
2010,08,16,16,05,31.80
2010,08,16,16,06,31.90
2010,08,16,16,07,32.00
2010,08,16,16,08,32.00
2010,08,16,16,09,32.00
2010,08,16,16,10,32.00
2010,08,16,16,11,31.90
2010,08,16,16,12,31.90
2010,08,16,16,13,31.90
2010,08,16,16,14,31.80
2010,08,16,16,15,31.80
2010,08,16,16,16,31.80
2010,08,16,16,17,31.70
2010,08,16,16,18,31.80
2010,08,16,16,19,31.70
2010,08,16,16,20,31.70
2010,08,16,16,21,31.80
2010,08,16,16,22,31.80
2010,08,16,16,23,31.90
2010,08,16,16,24,32.00
2010,08,16,16,25,32.00
2010,08,16,16,26,32.00
2010,08,16,16,27,32.10
2010,08,16,16,28,32.10
2010,08,16,16,29,32.10
2010,08,16,16,30,32.10
2010,08,16,16,31,32.10
2010,08,16,16,32,32.10
2010,08,16,16,33,32.10
2010,08,16,16,34,32.10
2010,08,16,16,35,32.10
2010,08,16,16,36,32.20
2010,08,16,16,37,32.20
2010,08,16,16,38,32.30
2010,08,16,16,39,32.30
2010,08,16,16,40,32.40
2010,08,16,16,41,32.40
2010,08,16,16,42,32.40
2010,08,16,16,43,32.40
2010,08,16,16,44,32.40
2010,08,16,16,45,32.40
2010,08,16,16,46,32.40
2010,08,16,16,47,32.30
2010,08,16,16,48,32.40
2010,08,16,16,49,32.30
2010,08,16,16,50,32.30
2010,08,16,16,51,32.30
2010,08,16,16,52,32.20
2010,08,16,16,53,32.20
2010,08,16,16,54,32.20
2010,08,16,16,55,32.20
2010,08,16,16,56,32.10
2010,08,16,16,57,32.10
2010,08,16,16,58,32.10
2010,08,16,16,59,32.10
2010,08,16,17,00,32.10
2010,08,16,17,01,32.10
2010,08,16,17,02,32.10
2010,08,16,17,03,32.10
2010,08,16,17,04,32.10
2010,08,16,17,05,32.20
2010,08,16,17,06,32.20
2010,08,16,17,07,32.20
2010,08,16,17,08,32.20
2010,08,16,17,09,32.20
2010,08,16,17,10,32.20
2010,08,16,17,11,32.30
2010,08,16,17,12,32.30
2010,08,16,17,13,32.40
2010,08,16,17,14,32.50
2010,08,16,17,15,32.50
2010,08,16,17,16,32.60
2010,08,16,17,17,32.70
2010,08,16,17,18,32.70
2010,08,16,17,19,32.80
2010,08,16,17,20,32.80
2010,08,16,17,21,32.90
2010,08,16,17,22,32.90
2010,08,16,17,23,32.90
2010,08,16,17,24,33.00
2010,08,16,17,25,33.00
2010,08,16,17,26,33.10
2010,08,16,17,27,33.10
2010,08,16,17,28,33.20
2010,08,16,17,29,33.20
2010,08,16,17,30,33.30
2010,08,16,17,31,33.40
2010,08,16,17,32,33.50
2010,08,16,17,33,33.60
2010,08,16,17,34,33.60
2010,08,16,17,35,33.60
2010,08,16,17,36,33.60
2010,08,16,17,37,33.60
2010,08,16,17,38,33.70
2010,08,16,17,39,33.70
2010,08,16,17,40,33.80
2010,08,16,17,41,33.80
2010,08,16,17,42,33.80
2010,08,16,17,43,33.80
2010,08,16,17,44,33.80
2010,08,16,17,45,33.80
2010,08,16,17,46,33.80
2010,08,16,17,47,33.80
2010,08,16,17,48,33.90
2010,08,16,17,49,33.90
2010,08,16,17,50,34.00
2010,08,16,17,51,34.00
2010,08,16,17,52,34.10
2010,08,16,17,53,34.20
2010,08,16,17,54,34.20
2010,08,16,17,55,34.20
2010,08,16,17,56,34.20
2010,08,16,17,57,34.20
2010,08,16,17,58,34.00
2010,08,16,17,59,33.90
2010,08,16,18,00,33.80
2010,08,16,18,01,33.70
2010,08,16,18,02,33.60
2010,08,16,18,03,33.50
2010,08,16,18,04,33.40
2010,08,16,18,05,33.30
2010,08,16,18,06,33.20
2010,08,16,18,07,33.20
2010,08,16,18,08,33.20
2010,08,16,18,09,33.20
2010,08,16,18,10,33.20
2010,08,16,18,11,33.20
2010,08,16,18,12,33.20
2010,08,16,18,13,33.20
2010,08,16,18,14,33.20
2010,08,16,18,15,33.20
2010,08,16,18,16,33.20
2010,08,16,18,17,33.20
2010,08,16,18,18,33.20
2010,08,16,18,19,33.20
2010,08,16,18,20,33.20
2010,08,16,18,21,33.20
2010,08,16,18,22,33.20
2010,08,16,18,23,33.20
2010,08,16,18,24,33.20
2010,08,16,18,25,33.10
2010,08,16,18,26,33.10
2010,08,16,18,27,33.00
2010,08,16,18,28,32.90
2010,08,16,18,29,32.80
2010,08,16,18,30,32.70
2010,08,16,18,31,32.60
2010,08,16,18,32,32.50
2010,08,16,18,33,32.40
2010,08,16,18,34,32.30
2010,08,16,18,35,32.20
2010,08,16,18,36,32.10
2010,08,16,18,37,32.00
2010,08,16,18,38,31.90
2010,08,16,18,39,31.90
2010,08,16,18,40,31.80
2010,08,16,18,41,31.80
2010,08,16,18,42,31.80
2010,08,16,18,43,31.90
2010,08,16,18,44,31.90
2010,08,16,18,45,31.90
2010,08,16,18,46,31.90
2010,08,16,18,47,31.90
2010,08,16,18,48,31.90
2010,08,16,18,49,31.90
2010,08,16,18,50,31.90
2010,08,16,18,51,31.90
2010,08,16,18,52,31.90
2010,08,16,18,53,31.90
2010,08,16,18,54,31.80
2010,08,16,18,55,31.70
2010,08,16,18,56,31.60
2010,08,16,18,57,31.50
2010,08,16,18,58,31.40
2010,08,16,18,59,31.40
2010,08,16,19,00,31.30
2010,08,16,19,01,31.20
2010,08,16,19,02,31.20
2010,08,16,19,03,31.10
2010,08,16,19,04,31.00
2010,08,16,19,05,30.90
2010,08,16,19,06,30.80
2010,08,16,19,07,30.70
2010,08,16,19,08,30.60
2010,08,16,19,09,30.40
2010,08,16,19,10,30.20
2010,08,16,19,11,30.00
2010,08,16,19,12,29.80
2010,08,16,19,13,29.60
2010,08,16,19,14,29.40
2010,08,16,19,15,29.30
2010,08,16,19,16,29.20
2010,08,16,19,17,29.10
2010,08,16,19,18,29.00
2010,08,16,19,19,28.90
2010,08,16,19,20,28.80
2010,08,16,19,21,28.70
2010,08,16,19,22,28.60
2010,08,16,19,23,28.50
2010,08,16,19,24,28.50
2010,08,16,19,25,28.40
2010,08,16,19,26,28.30
2010,08,16,19,27,28.20
2010,08,16,19,28,28.10
2010,08,16,19,29,28.00
2010,08,16,19,30,28.00
2010,08,16,19,31,27.90
2010,08,16,19,32,27.80
2010,08,16,19,33,27.80
2010,08,16,19,34,27.70
2010,08,16,19,35,27.70
2010,08,16,19,36,27.60
2010,08,16,19,37,27.60
2010,08,16,19,38,27.50
2010,08,16,19,39,27.50
2010,08,16,19,40,27.40
2010,08,16,19,41,27.40
2010,08,16,19,42,27.40
2010,08,16,19,43,27.30
2010,08,16,19,44,27.30
2010,08,16,19,45,27.20
2010,08,16,19,46,27.20
2010,08,16,19,47,27.10
2010,08,16,19,48,27.00
2010,08,16,19,49,26.90
2010,08,16,19,50,26.90
2010,08,16,19,51,26.80
2010,08,16,19,52,26.80
2010,08,16,19,53,26.70
2010,08,16,19,54,26.70
2010,08,16,19,55,26.60
2010,08,16,19,56,26.60
2010,08,16,19,57,26.50
2010,08,16,19,58,26.40
2010,08,16,19,59,26.30
2010,08,16,20,00,26.30
2010,08,16,20,01,26.30
2010,08,16,20,02,26.20
2010,08,16,20,03,26.10
2010,08,16,20,04,26.10
2010,08,16,20,05,26.00
2010,08,16,20,06,25.90
2010,08,16,20,07,25.90
2010,08,16,20,08,25.90
2010,08,16,20,09,25.80
2010,08,16,20,10,25.70
2010,08,16,20,11,25.70
2010,08,16,20,12,25.60
2010,08,16,20,13,25.50
2010,08,16,20,14,25.50
2010,08,16,20,15,25.40
2010,08,16,20,16,25.40
2010,08,16,20,17,25.30
2010,08,16,20,18,25.30
2010,08,16,20,19,25.20
2010,08,16,20,20,25.20
2010,08,16,20,21,25.20
2010,08,16,20,22,25.10
2010,08,16,20,23,25.00
2010,08,16,20,24,25.00
2010,08,16,20,25,24.90
2010,08,16,20,26,24.90
2010,08,16,20,27,24.80
2010,08,16,20,28,24.80
2010,08,16,20,29,24.70
2010,08,16,20,30,24.60
2010,08,16,20,31,24.60
2010,08,16,20,32,24.60
2010,08,16,20,33,24.60
2010,08,16,20,34,24.60
2010,08,16,20,35,24.60
2010,08,16,20,36,24.60
2010,08,16,20,37,24.60
2010,08,16,20,38,24.60
2010,08,16,20,39,24.60
2010,08,16,20,40,24.60
